[[{"header":{"parameterUnit":"m.s-1","parameterCategory":2,"la1":30.2991,"la2":30.254,"lo1":-89.0895,"lo2":-89.0444,"dy":0.0017,"dx":0.0017,"nx":28,"ny":28,"refTime":"2024-05-23T21:00:00:Z","depth":"0","parameterNumber":2,"parameterNumberName":"U-component_of_CURRENTS"},"data":[0,0,0,0,0,0,0,0,0,0,0,0,0,0,0,0,0,0,0,0,0,0,0,0,0,0,0,0,0,0,0,0,0,0,0,0,0,0,0,0,0,0,0,0,0,0,0,0,0,0,0,0,0,0,0,0,0,0,0.3781,0.3782,0,0.3828,0.3828,0.3829,0.3822,0.3821,0.3821,0.382,0.3832,0.3832,0.3833,0,0,0,0,0,0,0,0,0,0,0,0,0,0.3714,0.3715,0.3781,0.3782,0.3782,0.3828,0.3828,0.3829,0.3822,0.3821,0.3821,0.382,0.3831,0.3832,0.3833,0,0,0,0,0,0,0,0,0,0,0,0,0,0.3748,0.3715,0.3781,0.3786,0.3787,0.3828,0.3828,0.3829,0.3822,0.3821,0.382,0.382,0.3831,0.3832,0.3833,0.3859,0,0,0.3837,0.3838,0,0,0,0,0,0,0,0,0.3746,0.375,0.3785,0.3786,0.3787,0.382,0.3809,0.3838,0.3822,0.3806,0.382,0.3819,0.3827,0.3828,0.3836,0.3859,0.386,0.3838,0.3838,0.3839,0.3839,0,0,0,0,0,0,0,0.3744,0.3748,0.3797,0.3786,0.3787,0.3797,0.38,0.3815,0.3818,0.3808,0.3808,0.3817,0.3827,0.3835,0.3836,0.386,0.3837,0.3839,0.3839,0.384,0.3965,0.3968,0,0,0,0,0,0,0.3742,0.3746,0.3796,0.3799,0.3767,0.3799,0.3802,0.3809,0.3819,0.3821,0.3818,0.3817,0.3833,0.3835,0.3837,0.391,0.3839,0.384,0.3841,0.3963,0.3966,0.3969,0,0,0,0,0,0,0.3741,0.3746,0.3794,0.3775,0.3782,0.3801,0.3808,0.381,0.3824,0.3828,0.3828,0.383,0.3833,0.3835,0.3872,0.3908,0.3841,0.3842,0.396,0.3964,0.3967,0.4028,0,0,0,0,0,0,0.3738,0.3745,0.3751,0.3775,0.3784,0.3828,0.3809,0.3812,0.3832,0.3831,0.3838,0.3838,0.3832,0.3871,0.3873,0.3909,0.3843,0.3957,0.3962,0.3966,0.4023,0.4034,0.4043,0,0,0,0,0,0.3736,0.3749,0.3751,0.3758,0.379,0.383,0.3835,0.3843,0.3833,0.3849,0.3862,0.3838,0.3903,0.3874,0.3876,0.3913,0.3954,0.396,0.3966,0.4019,0.4032,0.4043,0,0,0,0,0,0,0.3722,0.3751,0.3753,0.3773,0.3804,0.3829,0.3845,0.3851,0.3874,0.3872,0.3867,0.3869,0.3918,0.3913,0.3881,0.3967,0.3927,0.3934,0.3966,0.3978,0.3988,0.3998,0.3844,0,0,0,0,0,0.3723,0.374,0.3771,0.3789,0.3805,0.3826,0.3843,0.3853,0.3876,0.3884,0.3892,0.3911,0.3946,0.3958,0.3981,0.4024,0.4046,0.4053,0.4063,0.4071,0.4084,0.417,0.4188,0.3988,0.3988,0.3988,0,0,0.3722,0.3742,0.375,0.3788,0.3809,0.3845,0.3834,0.3867,0.39,0.3883,0.3925,0.3944,0.3967,0.402,0.4041,0.4017,0.414,0.4078,0.4085,0.4094,0.4178,0.4197,0.4214,0.3992,0.3991,0.399,0,0,0.3736,0.3748,0.377,0.38,0.3841,0.3863,0.3876,0.391,0.3926,0.3973,0.398,0.4025,0.4058,0.4093,0.4113,0.4194,0.4192,0.42,0.4254,0.4337,0.4354,0.4369,0.4415,0.4434,0.4202,0.4202,0.4202,0,0.3734,0.3765,0.3784,0.3819,0.385,0.3873,0.3913,0.3941,0.3984,0.4025,0.3994,0.4096,0.4099,0.4193,0.4216,0.4216,0.4253,0.42,0.4349,0.4365,0.4379,0.4423,0.4443,0.4206,0.4206,0.4205,0.4205,0,0.3767,0.3797,0.3816,0.3867,0.3905,0.3944,0.3989,0.4031,0.4051,0.4093,0.4181,0.4194,0.4262,0.4269,0.4261,0.4376,0.4365,0.4352,0.4314,0.4403,0.4444,0.4464,0.4211,0.421,0.4209,0.4208,0,0,0.3754,0.3823,0.3832,0.3868,0.3935,0.3973,0.4041,0.4127,0.4192,0.4231,0.4319,0.4372,0.4392,0.4417,0.442,0.4476,0.4591,0.4457,0.4459,0.4494,0.4764,0.472,0.4737,0.4611,0.4615,0.4619,0.4748,0,0.3777,0.3845,0.3876,0.3953,0.3998,0.4051,0.4117,0.4201,0.4264,0.4354,0.4404,0.4478,0.4446,0.4474,0.4537,0.4592,0.4649,0.4556,0.4681,0.4684,0.4628,0.4761,0.4607,0.4707,0.4767,0.477,0.4773,0,0.3803,0.3849,0.3919,0.4013,0.4037,0.4086,0.4214,0.4277,0.4416,0.4467,0.4565,0.4598,0.4705,0.4637,0.4793,0.4742,0.4761,0.478,0.4786,0.4739,0.4679,0.4631,0.474,0.4635,0.4803,0.48,0.4798,0,0.3799,0.3883,0.3939,0.397,0.4076,0.4125,0.4189,0.4323,0.4413,0.4544,0.4636,0.4743,0.4828,0.4878,0.4925,0.4875,0.5078,0.5014,0.499,0.4985,0.4875,0.4855,0.4889,0.5116,0.5116,0.5115,0.5115,0,0.3824,0.3873,0.394,0.3976,0.4066,0.4132,0.425,0.4335,0.4483,0.4612,0.4694,0.481,0.49,0.5014,0.5001,0.5085,0.5155,0.5036,0.5039,0.489,0.4871,0.4788,0.4733,0.512,0.5119,0.5118,0.5117,0,0.3834,0.387,0.3944,0.4036,0.4068,0.4138,0.4286,0.4371,0.4518,0.4688,0.4736,0.4933,0.5073,0.514,0.5247,0.5215,0.5119,0.5248,0.5051,0.5029,0.4865,0.482,0.4668,0.4533,0.5244,0.5244,0.5244,0,0.3852,0.3884,0.3976,0.4007,0.405,0.4153,0.4219,0.4372,0.4466,0.475,0.4823,0.5037,0.5139,0.5307,0.5291,0.5298,0.5129,0.5154,0.5021,0.4876,0.4828,0.4598,0.4477,0.4895,0.4892,0.489,0.4888,0,0.3879,0.3899,0.3946,0.4011,0.407,0.4149,0.4251,0.4334,0.4519,0.4667,0.4853,0.496,0.5167,0.5137,0.5195,0.5166,0.4918,0.5105,0.5023,0.4631,0.4317,0.418,0.4769,0.4867,0.4869,0.4871,0.4872,0.4873,0.388,0.3908,0.3939,0.3991,0.4049,0.4086,0.4099,0.4208,0.433,0.4464,0.4703,0.4778,0.4943,0.5002,0.4951,0.4831,0.4775,0.4696,0.4676,0.4473,0.4265,0.4799,0.4856,0.4858,0.486,0.4861,0.4863,0,0.3854,0.3863,0.3908,0.3928,0.3923,0.3993,0.4059,0.4023,0.4057,0.4233,0.4339,0.4479,0.4486,0.4565,0.4592,0.445,0.4185,0.4332,0.3984,0.3905,0.4466,0.4375,0.4249,0.4249,0.4249,0.4249,0.4249,0.4249,0.3833,0.3825,0.3826,0.3766,0.3773,0.3696,0.3686,0.366,0.3717,0.3734,0.379,0.3923,0.4246,0.438,0.4277,0.416,0.3838,0.366,0.3634,0.4069,0.41,0.4129,0.4032,0.3836,0.3835,0.2893,0.2886,0.2881]},{"header":{"parameterUnit":"m.s-1","parameterCategory":2,"la1":30.2991,"la2":30.254,"lo1":-89.0895,"lo2":-89.0444,"dy":0.0017,"dx":0.0017,"nx":28,"ny":28,"refTime":"2024-05-23T21:00:00:Z","depth":"0","parameterNumber":3,"parameterNumberName":"V-component_of_CURRENTS"},"data":[0,0,0,0,0,0,0,0,0,0,0,0,0,0,0,0,0,0,0,0,0,0,0,0,0,0,0,0,0,0,0,0,0,0,0,0,0,0,0,0,0,0,0,0,0,0,0,0,0,0,0,0,0,0,0,0,0,0,0.0319,0.0319,0,0.0249,0.0248,0.0247,0.0194,0.0194,0.0193,0.0193,0.0093,0.0091,0.0088,0,0,0,0,0,0,0,0,0,0,0,0,0,0.0331,0.0331,0.0319,0.0319,0.0318,0.0249,0.0248,0.0247,0.0194,0.0194,0.0193,0.0193,0.0094,0.0091,0.0088,0,0,0,0,0,0,0,0,0,0,0,0,0,0.0299,0.0332,0.0319,0.0284,0.0281,0.0249,0.0248,0.0246,0.0194,0.0194,0.0193,0.0193,0.0095,0.0091,0.0088,0.0076,0,0,0.0077,0.0076,0,0,0,0,0,0,0,0,0.0301,0.0298,0.029,0.0287,0.0283,0.0231,0.0215,0.0189,0.0194,0.0225,0.0193,0.0192,0.0138,0.0131,0.0117,0.0072,0.0067,0.0077,0.0075,0.0073,0.0072,0,0,0,0,0,0,0,0.0303,0.03,0.029,0.029,0.0285,0.0246,0.0241,0.021,0.0184,0.0223,0.0219,0.0214,0.0135,0.012,0.0114,0.0066,0.0077,0.0074,0.0072,0.007,0.0008,0.0008,0,0,0,0,0,0,0.032,0.0303,0.0292,0.0288,0.0292,0.0246,0.0241,0.0247,0.0184,0.0175,0.0214,0.0212,0.0127,0.0118,0.011,0.0118,0.0073,0.007,0.0068,0.0007,0.0008,0.0008,0,0,0,0,0,0,0.032,0.032,0.0295,0.0294,0.0288,0.0248,0.0254,0.0246,0.0236,0.0179,0.0168,0.0213,0.0126,0.0115,0.0091,0.0112,0.0068,0.0065,0.0007,0.0008,0.0008,0.0116,0,0,0,0,0,0,0.0321,0.0321,0.0328,0.0296,0.0289,0.029,0.0254,0.0245,0.0234,0.0229,0.0174,0.0164,0.0125,0.0097,0.0088,0.0107,0.0062,0.0006,0.0007,0.0008,0.0112,0.0121,0.0128,0,0,0,0,0,0.0322,0.0343,0.0329,0.0327,0.0302,0.0291,0.0285,0.0251,0.0234,0.0239,0.0199,0.0166,0.0095,0.0095,0.0084,0.0102,0.0006,0.0007,0.0008,0.0109,0.0119,0.0128,0,0,0,0,0,0,0.0349,0.0339,0.0323,0.0338,0.032,0.0283,0.0283,0.0261,0.0233,0.0228,0.0173,0.016,0.0144,0.0107,0.0107,0.0085,0.0045,0.0044,0.0125,0.0134,0.0142,0.0174,0.0059,0,0,0,0,0,0.036,0.0373,0.0351,0.0361,0.0357,0.0321,0.0311,0.0292,0.0264,0.0251,0.0212,0.017,0.0139,0.0125,0.0087,0.008,0.0039,0.0083,0.0091,0.0098,0.0115,0.0071,0.0077,0.0012,0.0012,0.0012,0,0,0.0371,0.0367,0.0373,0.0367,0.0349,0.0362,0.0314,0.0311,0.0321,0.0244,0.0243,0.0194,0.0141,0.013,0.012,0.0104,0.0093,0.0099,0.0106,0.0119,0.0072,0.0079,0.0084,0.0012,0.0012,0.0012,0,0,0.0409,0.04,0.0427,0.0421,0.0408,0.0392,0.0398,0.0369,0.0356,0.0344,0.0293,0.0261,0.0213,0.0184,0.0162,0.019,0.0132,0.0175,0.0248,0.0205,0.021,0.0215,0.0169,0.0168,0.0185,0.0185,0.0185,0,0.042,0.0455,0.043,0.0454,0.0462,0.0415,0.0449,0.043,0.0396,0.0399,0.0358,0.0295,0.0241,0.024,0.0244,0.021,0.0175,0.022,0.0217,0.0221,0.0223,0.0175,0.0173,0.019,0.019,0.0189,0.0189,0,0.0482,0.0506,0.0521,0.0543,0.0547,0.0566,0.0546,0.0546,0.0519,0.0499,0.0483,0.0404,0.0371,0.0344,0.0301,0.0302,0.0267,0.023,0.02,0.0237,0.0183,0.0179,0.0198,0.0196,0.0195,0.0193,0,0,0.0519,0.056,0.0564,0.0601,0.0599,0.062,0.0638,0.0653,0.069,0.0623,0.0655,0.0572,0.0526,0.0498,0.0434,0.0394,0.0367,0.033,0.0325,0.0298,0.0273,0.0253,0.0245,0.0332,0.0332,0.0332,0.0228,0,0.0574,0.0655,0.0653,0.0729,0.0774,0.0749,0.0784,0.0787,0.0773,0.079,0.0701,0.0693,0.0587,0.0576,0.0518,0.0417,0.0362,0.0398,0.0231,0.0226,0.0214,0.0242,0.0273,0.0185,0.0224,0.0223,0.0222,0,0.0638,0.0689,0.0782,0.0854,0.0872,0.0911,0.0976,0.1,0.0998,0.0984,0.0946,0.0871,0.0806,0.0703,0.054,0.0571,0.0431,0.0333,0.0326,0.0271,0.0199,0.0153,0.0175,-0.0043,0.0215,0.0216,0.0216,0,0.0703,0.078,0.0869,0.089,0.0959,0.1004,0.1041,0.1067,0.1128,0.1112,0.1152,0.1031,0.1006,0.0815,0.059,0.0569,0.0406,0.0346,0.0188,0.0184,0.0161,0.0156,-0.0034,0.0214,0.0215,0.0215,0.0215,0,0.0777,0.0844,0.0916,0.0967,0.1095,0.1102,0.1231,0.1245,0.1301,0.1412,0.1266,0.1317,0.1035,0.0899,0.0656,0.0425,0.0445,0.0213,0.0164,0.0198,0.0197,-0.0035,-0.0153,0.0211,0.0212,0.0213,0.0213,0,0.0846,0.0883,0.0996,0.1091,0.1135,0.1232,0.1371,0.1465,0.1495,0.1636,0.1638,0.1546,0.1369,0.1062,0.0765,0.0546,0.0172,0.0191,0.0248,0.0208,-0.0129,-0.024,-0.0483,-0.0573,0.002,0.0019,0.0018,0,0.0896,0.0961,0.1099,0.1184,0.1239,0.1379,0.1486,0.1559,0.1676,0.1796,0.188,0.1749,0.1691,0.1237,0.0795,0.0365,0.0135,0.0122,0.0079,-0.0131,-0.0293,-0.0386,-0.045,0.0079,0.0079,0.0079,0.0078,0,0.0992,0.1035,0.113,0.1302,0.1435,0.1598,0.1757,0.1882,0.2001,0.2128,0.2253,0.2213,0.1792,0.1377,0.0782,0.0482,-0.0008,0.0105,-0.0128,-0.0266,-0.0364,-0.0478,0.012,0.0076,0.0077,0.0077,0.0077,0.0077,0.1062,0.1147,0.1266,0.1432,0.1588,0.1791,0.1939,0.2125,0.2342,0.254,0.2504,0.2499,0.1929,0.1125,0.0686,-0.0044,-0.0056,-0.0253,-0.0373,-0.0449,-0.0529,0.0068,-0.0021,-0.0021,-0.0022,-0.0022,-0.0022,0,0.115,0.1237,0.1386,0.1586,0.1758,0.1834,0.2104,0.2268,0.2537,0.2706,0.2796,0.2527,0.1811,0.1088,0.0109,-0.0415,-0.0605,-0.07,-0.0831,-0.0876,-0.0357,-0.0346,-0.0489,-0.0489,-0.0488,-0.0488,-0.0488,-0.0488,0.1199,0.1339,0.1409,0.1687,0.1832,0.2087,0.2245,0.25,0.2679,0.2875,0.2894,0.2855,0.2354,0.0593,-0.0602,-0.0886,-0.122,-0.1314,-0.1493,-0.1151,-0.1119,-0.1088,-0.1106,-0.1406,-0.1407,-0.1938,-0.1943,-0.1948]}],[{"header":{"parameterUnit":"m.s-1","parameterCategory":2,"la1":30.2991,"la2":30.254,"lo1":-89.0895,"lo2":-89.0444,"dy":0.0017,"dx":0.0017,"nx":28,"ny":28,"refTime":"2024-05-23T21:00:00:Z","depth":"2","parameterNumber":2,"parameterNumberName":"U-component_of_CURRENTS"},"data":[0,0,0,0,0,0,0,0,0,0,0,0,0,0,0,0,0,0,0,0,0,0,0,0,0,0,0,0,0,0,0,0,0,0,0,0,0,0,0,0,0,0,0,0,0,0,0,0,0,0,0,0,0,0,0,0,0,0,0.34,0.3401,0,0.3447,0.3447,0.3448,0.3455,0.3455,0.3455,0.3455,0.3479,0.348,0.348,0,0,0,0,0,0,0,0,0,0,0,0,0,0.3334,0.3335,0.34,0.3401,0.3402,0.3447,0.3447,0.3448,0.3455,0.3455,0.3455,0.3455,0.3479,0.348,0.3481,0,0,0,0,0,0,0,0,0,0,0,0,0,0.3368,0.3335,0.34,0.3413,0.3414,0.3447,0.3447,0.3448,0.3455,0.3455,0.3455,0.3454,0.3478,0.3479,0.3481,0.3493,0,0,0.3484,0.3485,0,0,0,0,0,0,0,0,0.3366,0.337,0.341,0.3412,0.3414,0.3447,0.3433,0.3463,0.3455,0.3437,0.3455,0.3454,0.3468,0.347,0.3476,0.3494,0.3495,0.3484,0.3485,0.3486,0.3486,0,0,0,0,0,0,0,0.3363,0.3368,0.3416,0.3411,0.3413,0.3422,0.3426,0.3439,0.3451,0.3439,0.344,0.3449,0.3469,0.3475,0.3477,0.3496,0.3484,0.3485,0.3486,0.3487,0.3605,0.3607,0,0,0,0,0,0,0.3362,0.3366,0.3414,0.3418,0.3392,0.3424,0.3428,0.3435,0.3451,0.3455,0.345,0.345,0.3473,0.3475,0.3478,0.3554,0.3486,0.3487,0.3488,0.3603,0.3606,0.3608,0,0,0,0,0,0,0.3361,0.3366,0.3413,0.3395,0.3402,0.3425,0.3433,0.3436,0.3457,0.346,0.3463,0.3469,0.3473,0.3476,0.3514,0.3553,0.3487,0.3488,0.36,0.3604,0.3607,0.3668,0,0,0,0,0,0,0.3359,0.3365,0.3374,0.3395,0.3403,0.3445,0.3433,0.3437,0.3463,0.3464,0.3478,0.3479,0.3473,0.3512,0.3515,0.3553,0.3489,0.3597,0.3601,0.3606,0.3663,0.3673,0.3682,0,0,0,0,0,0.3356,0.3368,0.3374,0.3381,0.3413,0.3447,0.3452,0.3466,0.3465,0.3481,0.3497,0.3479,0.3543,0.3515,0.3518,0.3557,0.3595,0.36,0.3605,0.3659,0.3671,0.3682,0,0,0,0,0,0,0.3343,0.3371,0.3378,0.3398,0.3428,0.3449,0.3468,0.3477,0.3503,0.3507,0.3504,0.3507,0.3558,0.3553,0.3522,0.3608,0.3569,0.3575,0.3609,0.362,0.363,0.364,0.349,0,0,0,0,0,0.3346,0.3364,0.3393,0.3412,0.3427,0.3451,0.3468,0.3482,0.3505,0.3516,0.3527,0.3549,0.3581,0.3596,0.3617,0.3658,0.3676,0.369,0.3699,0.3707,0.3721,0.3796,0.3814,0.3626,0.3626,0.3626,0,0,0.3346,0.3366,0.3375,0.3411,0.3433,0.3466,0.346,0.3496,0.3528,0.3515,0.3561,0.3581,0.3601,0.3652,0.3675,0.3653,0.377,0.3714,0.3721,0.373,0.3804,0.3822,0.3838,0.363,0.3629,0.3628,0,0,0.3357,0.3375,0.3395,0.3424,0.3467,0.3486,0.3501,0.3537,0.3558,0.3605,0.3614,0.3662,0.3694,0.3727,0.3744,0.3822,0.3819,0.383,0.3885,0.3958,0.3974,0.3988,0.4027,0.4044,0.3833,0.3834,0.3834,0,0.3359,0.3386,0.3408,0.344,0.347,0.3498,0.3534,0.3563,0.3608,0.365,0.3629,0.3729,0.3734,0.382,0.3845,0.3844,0.3875,0.3833,0.397,0.3984,0.3998,0.4035,0.4053,0.3837,0.3837,0.3836,0.3836,0,0.3383,0.3414,0.3433,0.3481,0.3518,0.3555,0.3601,0.3646,0.3675,0.3715,0.3806,0.3822,0.3889,0.3898,0.3891,0.3999,0.3986,0.3973,0.3936,0.402,0.4054,0.4072,0.3842,0.3841,0.384,0.3839,0,0,0.3369,0.3435,0.3444,0.3477,0.3545,0.3578,0.3648,0.373,0.3794,0.3841,0.3928,0.3985,0.4012,0.4035,0.4041,0.4093,0.42,0.4075,0.4077,0.4106,0.4352,0.4299,0.4313,0.4216,0.422,0.4223,0.4334,0,0.3386,0.3444,0.3479,0.3547,0.3585,0.3645,0.3709,0.3793,0.3859,0.3948,0.4005,0.4081,0.4059,0.4094,0.4153,0.42,0.4253,0.417,0.4274,0.4276,0.4213,0.4334,0.3989,0.4057,0.4351,0.4354,0.4356,0,0.34,0.3442,0.3503,0.3593,0.3616,0.3664,0.3789,0.3851,0.3989,0.4047,0.4149,0.419,0.4298,0.4243,0.4385,0.4339,0.4357,0.4371,0.4376,0.4319,0.4258,0.4024,0.4078,0.4386,0.4383,0.4381,0.4379,0,0.3381,0.3462,0.351,0.3539,0.3641,0.3695,0.3761,0.3893,0.3973,0.4119,0.4204,0.432,0.4403,0.4456,0.4504,0.446,0.4637,0.4578,0.4543,0.4538,0.4261,0.4226,0.4671,0.467,0.467,0.467,0.467,0,0.3387,0.3426,0.3506,0.3535,0.3614,0.3691,0.3795,0.3889,0.4035,0.414,0.4255,0.4355,0.4467,0.4572,0.4569,0.4637,0.4705,0.4586,0.4584,0.4272,0.4238,0.453,0.4512,0.4674,0.4673,0.4672,0.4672,0,0.3353,0.3406,0.3464,0.3567,0.3604,0.3663,0.3805,0.3874,0.4036,0.4178,0.4233,0.4442,0.4584,0.4667,0.4773,0.474,0.4777,0.4767,0.4384,0.4337,0.4602,0.4586,0.4747,0.4747,0.4747,0.4746,0.4746,0,0.3339,0.3364,0.3463,0.3497,0.3543,0.3636,0.3693,0.3856,0.3935,0.4207,0.4266,0.4488,0.4593,0.4764,0.4746,0.4768,0.4813,0.4445,0.43,0.4639,0.4621,0.4605,0.459,0.3944,0.3937,0.3932,0.3927,0,0.3306,0.3337,0.3379,0.3444,0.3503,0.3563,0.3665,0.3724,0.3912,0.4054,0.4231,0.4347,0.4552,0.4451,0.4527,0.4474,0.4416,0.4335,0.4816,0.3991,0.3894,0.3872,0.3881,0.3877,0.3882,0.3886,0.3889,0.3891,0.3264,0.3277,0.3323,0.3374,0.3433,0.3453,0.3454,0.3556,0.366,0.3803,0.4033,0.4101,0.4189,0.4145,0.4023,0.3937,0.4232,0.4015,0.4027,0.4045,0.3946,0.3855,0.381,0.3815,0.3819,0.3822,0.3825,0,0.3191,0.3204,0.3246,0.3276,0.3263,0.3351,0.3396,0.3346,0.3371,0.355,0.3675,0.3475,0.3457,0.3523,0.3333,0.3349,0.3247,0.3194,0.3017,0.3074,0.3123,0.2968,0.2577,0.2572,0.2568,0.2564,0,0,0.3146,0.3134,0.3146,0.3084,0.3108,0.3036,0.3023,0.2976,0.3028,0.3014,0.3045,0.3342,0.3472,0.2987,0.2933,0.2714,0.2853,0.2608,0.3628,0.3482,0.3523,0.3643,0.3477,0,0,0,0,0]},{"header":{"parameterUnit":"m.s-1","parameterCategory":2,"la1":30.2991,"la2":30.254,"lo1":-89.0895,"lo2":-89.0444,"dy":0.0017,"dx":0.0017,"nx":28,"ny":28,"refTime":"2024-05-23T21:00:00:Z","depth":"2","parameterNumber":3,"parameterNumberName":"V-component_of_CURRENTS"},"data":[0,0,0,0,0,0,0,0,0,0,0,0,0,0,0,0,0,0,0,0,0,0,0,0,0,0,0,0,0,0,0,0,0,0,0,0,0,0,0,0,0,0,0,0,0,0,0,0,0,0,0,0,0,0,0,0,0,0,0.0181,0.018,0,0.0116,0.0116,0.0115,0.0067,0.0067,0.0067,0.0066,-0.0025,-0.0027,-0.0029,0,0,0,0,0,0,0,0,0,0,0,0,0,0.0191,0.0192,0.0181,0.018,0.018,0.0117,0.0115,0.0114,0.0067,0.0067,0.0067,0.0066,-0.0024,-0.0027,-0.0029,0,0,0,0,0,0,0,0,0,0,0,0,0,0.0162,0.0192,0.0181,0.0149,0.0146,0.0117,0.0115,0.0114,0.0067,0.0067,0.0067,0.0066,-0.0023,-0.0026,-0.003,-0.004,0,0,-0.0039,-0.0041,0,0,0,0,0,0,0,0,0.0164,0.0161,0.0155,0.0152,0.0148,0.01,0.0086,0.0062,0.0068,0.0096,0.0066,0.0066,0.0016,0.0009,-0.0003,-0.0045,-0.0049,-0.004,-0.0042,-0.0043,-0.0044,0,0,0,0,0,0,0,0.0166,0.0164,0.0154,0.0154,0.015,0.0114,0.0109,0.0081,0.0058,0.0094,0.009,0.0085,0.0013,0.0,-0.0006,-0.005,-0.004,-0.0043,-0.0045,-0.0046,-0.01,-0.0099,0,0,0,0,0,0,0.0181,0.0166,0.0156,0.0152,0.0156,0.0114,0.0109,0.0115,0.0059,0.005,0.0085,0.0083,0.0006,-0.0002,-0.0009,0.0,-0.0043,-0.0046,-0.0048,-0.01,-0.01,-0.0099,0,0,0,0,0,0,0.0181,0.0181,0.0159,0.0158,0.0153,0.0115,0.0121,0.0114,0.0106,0.0053,0.0044,0.0086,0.0005,-0.0005,-0.0026,-0.0005,-0.0048,-0.005,-0.0101,-0.01,-0.01,0.0003,0,0,0,0,0,0,0.0182,0.0182,0.0189,0.0159,0.0153,0.0156,0.0122,0.0113,0.0104,0.01,0.005,0.0041,0.0004,-0.0021,-0.0029,-0.001,-0.0053,-0.0102,-0.0101,-0.01,-0.0001,0.0007,0.0014,0,0,0,0,0,0.0183,0.0203,0.019,0.0189,0.0166,0.0157,0.0151,0.012,0.0105,0.011,0.0073,0.0043,-0.0021,-0.0023,-0.0033,-0.0014,-0.0102,-0.0101,-0.01,-0.0005,0.0005,0.0014,0,0,0,0,0,0,0.0209,0.0199,0.0185,0.02,0.0183,0.0149,0.015,0.013,0.0105,0.0101,0.0049,0.0038,0.0024,-0.001,-0.0011,-0.0029,-0.0067,-0.0068,0.0009,0.0018,0.0025,0.0052,-0.0056,0,0,0,0,0,0.0219,0.0232,0.0212,0.0222,0.0218,0.0185,0.0177,0.016,0.0134,0.0122,0.0087,0.0049,0.002,0.0008,-0.0027,-0.0032,-0.0075,-0.0028,-0.002,-0.0013,0.0,-0.0048,-0.0043,-0.0096,-0.0096,-0.0096,0,0,0.023,0.0226,0.0232,0.0228,0.0211,0.0224,0.0179,0.0178,0.0188,0.0116,0.0117,0.0072,0.0022,0.0014,0.0005,-0.001,-0.0022,-0.0012,-0.0005,0.0005,-0.0047,-0.0041,-0.0037,-0.0095,-0.0095,-0.0095,0,0,0.0266,0.0258,0.0283,0.028,0.0268,0.0254,0.026,0.0234,0.0222,0.0213,0.0165,0.0136,0.0093,0.0065,0.0044,0.0072,0.0016,0.0062,0.0129,0.0082,0.0086,0.0089,0.0041,0.0039,0.0071,0.0072,0.0072,0,0.0277,0.0309,0.0287,0.0311,0.0319,0.0276,0.0308,0.0292,0.0262,0.0262,0.0227,0.0167,0.0119,0.0116,0.0122,0.0091,0.0055,0.0102,0.0093,0.0095,0.0097,0.0047,0.0043,0.0077,0.0076,0.0076,0.0075,0,0.0335,0.0357,0.0373,0.0395,0.04,0.0418,0.0401,0.0402,0.0378,0.0358,0.0341,0.0269,0.0238,0.0214,0.0176,0.0173,0.014,0.0105,0.0076,0.0109,0.0053,0.0048,0.0084,0.0082,0.0081,0.0079,0,0,0.0368,0.0408,0.0413,0.0446,0.0449,0.0468,0.0486,0.0498,0.0527,0.047,0.0492,0.0422,0.0379,0.0352,0.0295,0.0254,0.0222,0.0196,0.0191,0.0159,0.0121,0.0093,0.0084,0.0189,0.0188,0.0188,0.0078,0,0.0419,0.0494,0.0495,0.0566,0.0606,0.0586,0.0617,0.0619,0.0603,0.0611,0.0531,0.0521,0.0434,0.0423,0.0368,0.0267,0.0214,0.0256,0.0085,0.008,0.006,0.0079,0.0116,0.0021,0.0072,0.0071,0.007,0,0.0478,0.0524,0.0608,0.0674,0.069,0.0727,0.078,0.0803,0.0793,0.0777,0.0741,0.0674,0.0613,0.0526,0.0367,0.0401,0.0272,0.0178,0.017,0.0108,0.0043,-0.0006,0.0009,0.0061,0.0061,0.0062,0.0063,0,0.0532,0.0604,0.0683,0.0704,0.0767,0.0808,0.0841,0.0859,0.0904,0.0888,0.091,0.0806,0.0775,0.0604,0.04,0.0386,0.0214,0.0165,0.0013,0.0008,-0.0011,-0.0016,0.0038,0.0039,0.0039,0.0039,0.0039,0,0.0594,0.0654,0.0723,0.0769,0.0878,0.089,0.0995,0.1009,0.1046,0.1125,0.1009,0.1034,0.0794,0.0662,0.045,0.0226,0.0244,0.0032,-0.0017,0.0024,0.0024,0.0016,0.0015,0.0035,0.0036,0.0037,0.0037,0,0.0642,0.0682,0.0782,0.087,0.0912,0.0993,0.1109,0.1181,0.1202,0.1299,0.1301,0.1211,0.1049,0.0786,0.0514,0.0313,0.0081,-0.0015,0.005,0.0011,-0.0108,-0.0103,-0.0183,-0.0185,-0.0186,-0.0188,-0.0189,0,0.0675,0.0733,0.0864,0.094,0.0989,0.1108,0.1196,0.1256,0.1345,0.1418,0.1475,0.1354,0.1295,0.088,0.05,0.0126,0.007,-0.0095,-0.0122,-0.0089,-0.0129,-0.0121,-0.0114,-0.0116,-0.0116,-0.0116,-0.0116,0,0.074,0.0785,0.0872,0.1028,0.1142,0.1277,0.1411,0.1502,0.1592,0.1677,0.1758,0.1717,0.1348,0.0987,0.0471,0.0216,-0.0032,-0.0113,-0.0093,-0.0059,-0.0033,-0.0069,-0.0063,-0.0119,-0.0119,-0.0119,-0.0119,-0.0118,0.079,0.086,0.0978,0.1128,0.1265,0.1434,0.1555,0.1695,0.1859,0.2,0.1957,0.1913,0.1507,0.0861,0.041,-0.0064,-0.0037,-0.0206,-0.0202,-0.0198,-0.0164,-0.0141,-0.0242,-0.0243,-0.0243,-0.0243,-0.0244,0,0.0858,0.0937,0.107,0.1253,0.1403,0.1478,0.1694,0.1808,0.2008,0.2131,0.2198,0.1815,0.1409,0.0927,0.0234,-0.0174,-0.0205,-0.0312,-0.0254,-0.0248,-0.0243,-0.021,-0.0302,-0.0303,-0.0305,-0.0306,0,0,0.0896,0.1026,0.1092,0.1339,0.1474,0.1689,0.182,0.1988,0.2116,0.2228,0.2221,0.2152,0.1572,0.1059,0.05,0.0099,0.0019,0.0016,0.011,0.0252,0.0262,-0.0132,-0.0067,0,0,0,0,0]}],[{"header":{"parameterUnit":"m.s-1","parameterCategory":2,"la1":30.2991,"la2":30.254,"lo1":-89.0895,"lo2":-89.0444,"dy":0.0017,"dx":0.0017,"nx":28,"ny":28,"refTime":"2024-05-23T21:00:00:Z","depth":"4","parameterNumber":2,"parameterNumberName":"U-component_of_CURRENTS"},"data":[0,0,0,0,0,0,0,0,0,0,0,0,0,0,0,0,0,0,0,0,0,0,0,0,0,0,0,0,0,0,0,0,0,0,0,0,0,0,0,0,0,0,0,0,0,0,0,0,0,0,0,0,0,0,0,0,0,0,0.2245,0.2246,0,0.2334,0.2335,0.2336,0.2412,0.2413,0.2414,0.2415,0.2525,0.2526,0.2528,0,0,0,0,0,0,0,0,0,0,0,0,0,0.2137,0.2138,0.2245,0.2246,0.2248,0.2334,0.2335,0.2336,0.2412,0.2413,0.2414,0.2416,0.2524,0.2526,0.2528,0,0,0,0,0,0,0,0,0,0,0,0,0,0.2198,0.2139,0.2245,0.2298,0.2304,0.2334,0.2335,0.2336,0.2412,0.2413,0.2415,0.2416,0.2523,0.2526,0.2529,0.2514,0,0,0.2537,0.2539,0,0,0,0,0,0,0,0,0.2195,0.2202,0.2289,0.2294,0.2301,0.2366,0.2337,0.2398,0.2411,0.2368,0.2415,0.2417,0.2474,0.2481,0.249,0.2519,0.2524,0.2538,0.2539,0.2541,0.2542,0,0,0,0,0,0,0,0.219,0.2198,0.2278,0.229,0.2297,0.2316,0.2326,0.2349,0.2409,0.2372,0.2378,0.2391,0.2477,0.2487,0.2493,0.2526,0.2538,0.254,0.2542,0.2543,0.2708,0.2711,0,0,0,0,0,0,0.2183,0.2194,0.2275,0.2281,0.2253,0.2317,0.2328,0.2341,0.2409,0.2421,0.239,0.2395,0.2481,0.249,0.2498,0.2622,0.2541,0.2543,0.2545,0.2706,0.2709,0.2712,0,0,0,0,0,0,0.218,0.2189,0.2271,0.2241,0.2254,0.2317,0.2331,0.2342,0.2402,0.2423,0.2435,0.2445,0.2483,0.2494,0.2566,0.2622,0.2545,0.2547,0.2703,0.2707,0.2711,0.2783,0,0,0,0,0,0,0.2176,0.2187,0.2217,0.2241,0.2255,0.2321,0.233,0.2343,0.2406,0.2414,0.2473,0.2482,0.2485,0.2562,0.2569,0.2624,0.255,0.2699,0.2705,0.2709,0.2777,0.2788,0.2799,0,0,0,0,0,0.2172,0.2197,0.2218,0.2229,0.2286,0.2323,0.2333,0.238,0.2408,0.244,0.2486,0.2483,0.2599,0.2566,0.2574,0.2631,0.2697,0.2703,0.2709,0.2772,0.2786,0.2798,0,0,0,0,0,0,0.2167,0.2207,0.2231,0.2269,0.231,0.2337,0.2379,0.2406,0.2467,0.2492,0.2509,0.2521,0.2607,0.261,0.2573,0.2696,0.265,0.2658,0.2696,0.2709,0.272,0.2726,0.2552,0,0,0,0,0,0.2178,0.2212,0.2248,0.2286,0.231,0.2353,0.2385,0.2417,0.2462,0.2493,0.2533,0.2582,0.2628,0.2663,0.2697,0.2759,0.2767,0.2805,0.2816,0.2825,0.2837,0.2902,0.292,0.2732,0.2732,0.2732,0,0,0.2187,0.2216,0.2238,0.229,0.2328,0.2366,0.2378,0.2439,0.2485,0.2493,0.2586,0.2623,0.2653,0.2727,0.2767,0.2744,0.2883,0.2832,0.284,0.2847,0.291,0.2928,0.2944,0.2736,0.2735,0.2734,0,0,0.2206,0.2252,0.2283,0.2319,0.2385,0.241,0.2438,0.2495,0.2544,0.262,0.2646,0.272,0.2786,0.2823,0.2846,0.2938,0.2936,0.296,0.3023,0.3086,0.3102,0.3116,0.3142,0.3157,0.2967,0.2967,0.2967,0,0.2223,0.2262,0.23,0.2338,0.238,0.2434,0.2479,0.2526,0.2606,0.266,0.2667,0.2804,0.2829,0.2922,0.296,0.2963,0.2989,0.2965,0.3099,0.3113,0.3126,0.315,0.3166,0.2971,0.2971,0.297,0.297,0,0.2245,0.23,0.2325,0.2391,0.244,0.2492,0.2553,0.2627,0.2693,0.2745,0.2869,0.2909,0.2996,0.3017,0.3017,0.3133,0.3117,0.3101,0.306,0.3149,0.3168,0.3184,0.2977,0.2976,0.2975,0.2974,0,0,0.2226,0.2323,0.2339,0.2383,0.2478,0.2513,0.2611,0.271,0.279,0.288,0.2984,0.3073,0.3119,0.3149,0.317,0.3223,0.3329,0.3212,0.3214,0.3228,0.346,0.325,0.3247,0.3346,0.335,0.3352,0.3432,0,0.2242,0.2314,0.2366,0.2454,0.2498,0.2588,0.2671,0.2774,0.2866,0.2978,0.3061,0.3163,0.3161,0.3219,0.3279,0.3327,0.3377,0.3308,0.338,0.3382,0.3177,0.326,0.3363,0.3443,0.3447,0.345,0.3451,0,0.2241,0.2297,0.2379,0.2497,0.2528,0.2597,0.2751,0.2831,0.2993,0.3073,0.3198,0.3261,0.3387,0.3352,0.349,0.3454,0.3472,0.3485,0.3488,0.3278,0.3202,0.3341,0.3479,0.3477,0.3475,0.3473,0.3471,0,0.2189,0.2305,0.2375,0.2413,0.2551,0.263,0.272,0.2878,0.2964,0.3146,0.3237,0.3378,0.3474,0.3534,0.3589,0.3561,0.3705,0.3661,0.3482,0.3466,0.3597,0.3581,0.3742,0.3742,0.3742,0.3742,0.3742,0,0.2158,0.2221,0.2367,0.2401,0.2503,0.2619,0.2747,0.2858,0.303,0.313,0.329,0.3379,0.3532,0.3627,0.3639,0.3613,0.3756,0.3504,0.3481,0.3624,0.3611,0.3607,0.359,0.3745,0.3744,0.3744,0.3743,0,0.2072,0.2171,0.2255,0.2418,0.2476,0.255,0.274,0.282,0.3014,0.3149,0.3219,0.3432,0.3555,0.366,0.3763,0.3661,0.3658,0.3607,0.3758,0.3741,0.3359,0.3346,0.3403,0.3397,0.3391,0.3386,0.3383,0,0.202,0.2061,0.2237,0.2287,0.2366,0.2499,0.2582,0.2785,0.2859,0.3141,0.3177,0.3395,0.3506,0.3494,0.3612,0.3624,0.3579,0.3538,0.3434,0.3357,0.333,0.3325,0.3319,0.3374,0.3372,0.3371,0.3369,0,0.1919,0.2009,0.2078,0.2186,0.2281,0.2366,0.25,0.2537,0.2763,0.297,0.3071,0.3151,0.3286,0.3361,0.3408,0.3402,0.3542,0.3479,0.3489,0.3391,0.3322,0.3299,0.33,0.335,0.3353,0.3355,0.3356,0,0.1845,0.187,0.1982,0.2055,0.2161,0.2196,0.2289,0.2383,0.2492,0.2786,0.2812,0.3048,0.3251,0.3247,0.3284,0.3277,0.3214,0.308,0.3109,0.3132,0.3006,0.2876,0.2759,0,0,0,0,0,0.1758,0.1776,0.1837,0.1905,0.1999,0.2069,0.2212,0.2309,0.2522,0.2519,0.266,0.2769,0.2865,0.2984,0.2922,0.3153,0.3218,0.3063,0.3075,0.3244,0.3266,0.3142,0,0,0,0,0,0,0.1702,0.1762,0.1785,0.1764,0.1784,0.1872,0.1958,0.2105,0.2111,0.2344,0.2414,0.2597,0.2733,0.2883,0.2874,0.2905,0.285,0.3206,0.3198,0.3231,0.3251,0.3269,0.315,0,0,0,0,0]},{"header":{"parameterUnit":"m.s-1","parameterCategory":2,"la1":30.2991,"la2":30.254,"lo1":-89.0895,"lo2":-89.0444,"dy":0.0017,"dx":0.0017,"nx":28,"ny":28,"refTime":"2024-05-23T21:00:00:Z","depth":"4","parameterNumber":3,"parameterNumberName":"V-component_of_CURRENTS"},"data":[0,0,0,0,0,0,0,0,0,0,0,0,0,0,0,0,0,0,0,0,0,0,0,0,0,0,0,0,0,0,0,0,0,0,0,0,0,0,0,0,0,0,0,0,0,0,0,0,0,0,0,0,0,0,0,0,0,0,0.0101,0.01,0,0.0058,0.0057,0.0057,0.0022,0.0022,0.0022,0.0021,-0.0048,-0.0049,-0.0051,0,0,0,0,0,0,0,0,0,0,0,0,0,0.0104,0.0104,0.0101,0.01,0.01,0.0058,0.0057,0.0057,0.0022,0.0022,0.0022,0.0021,-0.0047,-0.0049,-0.0051,0,0,0,0,0,0,0,0,0,0,0,0,0,0.0086,0.0105,0.0101,0.0078,0.0076,0.0058,0.0057,0.0056,0.0022,0.0022,0.0022,0.0021,-0.0046,-0.0049,-0.0051,-0.0057,0,0,-0.0058,-0.0059,0,0,0,0,0,0,0,0,0.0087,0.0086,0.0082,0.008,0.0077,0.0046,0.0033,0.0017,0.0023,0.0042,0.0021,0.0021,-0.0018,-0.0023,-0.003,-0.006,-0.0063,-0.0058,-0.006,-0.0061,-0.0062,0,0,0,0,0,0,0,0.0088,0.0087,0.0083,0.0081,0.0078,0.0053,0.0051,0.003,0.0014,0.004,0.0038,0.0034,-0.002,-0.0028,-0.0032,-0.0064,-0.0058,-0.006,-0.0062,-0.0063,-0.0099,-0.0098,0,0,0,0,0,0,0.0098,0.0089,0.0084,0.0082,0.0082,0.0054,0.0051,0.0056,0.0015,0.0008,0.0035,0.0033,-0.0024,-0.003,-0.0035,-0.0024,-0.0061,-0.0063,-0.0064,-0.0099,-0.0099,-0.0098,0,0,0,0,0,0,0.0098,0.0098,0.0086,0.0084,0.0081,0.0055,0.006,0.0055,0.005,0.0011,0.0004,0.0036,-0.0024,-0.0032,-0.0047,-0.0028,-0.0064,-0.0066,-0.01,-0.0099,-0.0098,-0.0015,0,0,0,0,0,0,0.0099,0.0099,0.0105,0.0085,0.0081,0.0086,0.006,0.0054,0.0049,0.0046,0.0009,0.0002,-0.0025,-0.0044,-0.005,-0.0032,-0.0068,-0.01,-0.0099,-0.0099,-0.0018,-0.0012,-0.0006,0,0,0,0,0,0.0099,0.0115,0.0106,0.0105,0.0092,0.0087,0.0083,0.0061,0.005,0.0054,0.0027,0.0004,-0.0043,-0.0045,-0.0052,-0.0034,-0.0101,-0.01,-0.0099,-0.0021,-0.0013,-0.0006,0,0,0,0,0,0,0.0118,0.0113,0.0102,0.0115,0.0105,0.0081,0.0083,0.0069,0.0051,0.0048,0.0009,0.0001,-0.0008,-0.0034,-0.0036,-0.0044,-0.0075,-0.0076,-0.0014,-0.0007,-0.0001,0.0017,-0.007,0,0,0,0,0,0.0126,0.0137,0.0123,0.0132,0.0131,0.0108,0.0103,0.0091,0.0073,0.0065,0.0038,0.0011,-0.001,-0.0018,-0.0044,-0.0044,-0.0084,-0.0039,-0.0033,-0.0027,-0.0018,-0.0067,-0.0064,-0.0095,-0.0095,-0.0095,0,0,0.0135,0.0133,0.0138,0.0137,0.0126,0.0139,0.0104,0.0105,0.0116,0.006,0.0064,0.003,-0.0007,-0.001,-0.0016,-0.0028,-0.0039,-0.0026,-0.002,-0.0015,-0.0065,-0.0063,-0.006,-0.0094,-0.0094,-0.0094,0,0,0.0162,0.0158,0.0178,0.0178,0.0172,0.0163,0.0168,0.0151,0.0143,0.014,0.0103,0.0079,0.0052,0.003,0.0015,0.004,-0.0008,0.0035,0.0088,0.0042,0.0044,0.0045,0.0001,-0.0002,0.0044,0.0044,0.0044,0,0.0171,0.0197,0.0181,0.0202,0.0211,0.018,0.0206,0.0198,0.0177,0.0176,0.0152,0.0108,0.0071,0.007,0.0078,0.0055,0.0022,0.0066,0.0051,0.0051,0.0051,0.0005,0.0,0.0048,0.0048,0.0047,0.0047,0,0.0215,0.0236,0.0249,0.0269,0.0276,0.0292,0.0284,0.0286,0.027,0.0255,0.0242,0.0189,0.0164,0.0149,0.0122,0.0115,0.0089,0.0061,0.0035,0.0059,0.0009,0.0003,0.0054,0.0053,0.0051,0.005,0,0,0.0236,0.0273,0.0279,0.0306,0.0315,0.0331,0.035,0.036,0.038,0.0343,0.0355,0.0308,0.0273,0.0254,0.0212,0.0174,0.014,0.013,0.0125,0.0092,0.0041,0.0018,0.0009,0.0112,0.0111,0.0111,0.0007,0,0.0274,0.0334,0.0341,0.04,0.0431,0.0423,0.0449,0.0453,0.0441,0.0443,0.0383,0.0375,0.0317,0.0309,0.0261,0.0173,0.0128,0.0171,0.0016,0.0012,-0.0006,0.0002,0.0109,0.0002,0.0,-0.0001,-0.0002,0,0.0316,0.0354,0.0421,0.0477,0.0491,0.0524,0.0564,0.0586,0.0576,0.0563,0.0535,0.0485,0.0435,0.0374,0.0236,0.0269,0.0166,0.0087,0.0081,0.0027,-0.0023,-0.0031,-0.0014,-0.0013,-0.0012,-0.0011,-0.0011,0,0.0346,0.0411,0.0472,0.0492,0.0547,0.0581,0.0611,0.0624,0.0656,0.0644,0.0652,0.0574,0.0542,0.0408,0.0246,0.0242,0.0081,0.0048,-0.0073,-0.0076,-0.0061,-0.0062,-0.0059,-0.0059,-0.0059,-0.0059,-0.0058,0,0.0384,0.0433,0.0497,0.0533,0.0617,0.0636,0.0715,0.0728,0.0753,0.0801,0.0723,0.0725,0.0549,0.0436,0.0275,0.0088,0.0097,-0.0061,-0.0103,-0.0024,-0.0019,-0.0066,-0.0066,-0.0062,-0.0062,-0.0061,-0.006,0,0.0405,0.0443,0.0522,0.06,0.0636,0.0698,0.0795,0.0845,0.086,0.0917,0.0919,0.0838,0.0696,0.0502,0.028,0.0135,-0.0051,-0.0125,-0.0018,-0.0052,-0.0186,-0.018,-0.0265,-0.0267,-0.0268,-0.027,-0.0271,0,0.0419,0.0462,0.0576,0.0634,0.0677,0.0773,0.0843,0.0896,0.0952,0.0987,0.1012,0.0906,0.0822,0.0508,0.0283,-0.0028,-0.0082,-0.0188,-0.0196,-0.0174,-0.0206,-0.0198,-0.019,-0.0273,-0.0273,-0.0274,-0.0274,0,0.0445,0.0489,0.0558,0.0681,0.0772,0.0879,0.0978,0.1026,0.1092,0.1104,0.1098,0.0944,0.0778,0.0522,0.0278,0.0051,-0.0122,-0.0203,-0.0202,-0.0211,-0.0184,-0.0213,-0.0204,-0.0279,-0.0278,-0.0278,-0.0277,0,0.0469,0.0518,0.0617,0.0727,0.0845,0.0957,0.1005,0.1079,0.114,0.117,0.1164,0.0994,0.0898,0.0562,0.0338,0.0112,0.0043,-0.0047,-0.0055,-0.0053,0.003,0.0096,0.0057,0,0,0,0,0,0.0494,0.0557,0.0654,0.0783,0.0898,0.0976,0.1091,0.1127,0.1186,0.1197,0.1188,0.1039,0.0727,0.0592,0.0364,0.0276,-0.0022,-0.0005,-0.0135,-0.0305,-0.03,-0.0242,0,0,0,0,0,0,0.0512,0.0605,0.0657,0.0815,0.0907,0.1046,0.1124,0.1161,0.1164,0.1185,0.103,0.0965,0.0661,0.0869,0.036,0.029,0.0169,-0.0145,-0.0151,-0.0309,-0.0304,-0.0299,-0.0238,0,0,0,0,0]}]]